BAW231 EGBB-EGPH

Flight info

Callsign BAW231
Flight time 0h 43m
Altitude 28000
Route LUVUM DCT TNT N57 POL UN601 RIBEL DCT INPIP
Aircraft A35K/H-SDE2E3GHIJ3J4J5LM1ORWXY/LB1D1

Departure

Time 2026-04-26 08:56
Airport Birmingham Airport (EGBB)

Arrival

Time 2026-04-26 09:40
Airport Edinburgh Airport (EGPH)
Time Latitude Longitude Altitude Speed Heading
2026-04-26 08:24 52.44909 -1.73412 340 ft 0 kts 146°
2026-04-26 08:41 52.44914 -1.73419 335 ft 2 kts 153°
2026-04-26 08:41 52.44929 -1.73426 335 ft 3 kts 207°
2026-04-26 08:41 52.44942 -1.73406 338 ft 3 kts 241°
2026-04-26 08:41 52.44949 -1.73382 335 ft 1 kts 247°
2026-04-26 08:42 52.44950 -1.73381 335 ft 0 kts 247°
2026-04-26 08:42 52.44951 -1.73384 335 ft 0 kts 247°
2026-04-26 08:42 52.44952 -1.73387 335 ft 0 kts 247°
2026-04-26 08:42 52.44952 -1.73390 335 ft 0 kts 247°
2026-04-26 08:43 52.44952 -1.73393 335 ft 0 kts 247°
2026-04-26 08:43 52.44953 -1.73395 335 ft 0 kts 247°
2026-04-26 08:46 52.44951 -1.73401 336 ft 2 kts 246°
2026-04-26 08:46 52.44938 -1.73448 338 ft 7 kts 243°
2026-04-26 08:46 52.44907 -1.73534 336 ft 11 kts 237°
2026-04-26 08:47 52.44879 -1.73603 334 ft 1 kts 237°
2026-04-26 08:47 52.44873 -1.73634 334 ft 7 kts 256°
2026-04-26 08:47 52.44902 -1.73738 334 ft 14 kts 317°
2026-04-26 08:47 52.45003 -1.73850 333 ft 20 kts 326°
2026-04-26 08:48 52.45130 -1.73993 332 ft 24 kts 326°
2026-04-26 08:48 52.45245 -1.74121 332 ft 20 kts 326°
2026-04-26 08:48 52.45348 -1.74234 330 ft 16 kts 327°
2026-04-26 08:48 52.45416 -1.74380 330 ft 18 kts 296°
2026-04-26 08:49 52.45485 -1.74576 328 ft 21 kts 314°
2026-04-26 08:49 52.45612 -1.74724 326 ft 24 kts 326°
2026-04-26 08:49 52.45762 -1.74891 325 ft 28 kts 326°
2026-04-26 08:49 52.45928 -1.75076 324 ft 21 kts 326°
2026-04-26 08:50 52.46041 -1.75201 324 ft 21 kts 326°
2026-04-26 08:50 52.46176 -1.75351 320 ft 25 kts 326°
2026-04-26 08:50 52.46328 -1.75521 321 ft 20 kts 326°
2026-04-26 08:50 52.46446 -1.75652 318 ft 19 kts 326°
2026-04-26 08:51 52.46565 -1.75784 317 ft 1 kts 326°
2026-04-26 08:51 52.46577 -1.75798 318 ft 0 kts 326°
2026-04-26 08:52 52.46583 -1.75805 319 ft 0 kts 326°
2026-04-26 08:52 52.46584 -1.75806 319 ft 0 kts 326°
2026-04-26 08:53 52.46595 -1.75818 320 ft 4 kts 326°
2026-04-26 08:53 52.46624 -1.75872 320 ft 8 kts 293°
2026-04-26 08:53 52.46609 -1.75971 319 ft 11 kts 240°
2026-04-26 08:54 52.46563 -1.76066 319 ft 8 kts 204°
2026-04-26 08:54 52.46520 -1.76057 321 ft 6 kts 156°
2026-04-26 08:54 52.46491 -1.76031 319 ft 0 kts 147°
2026-04-26 08:55 52.46486 -1.76025 319 ft 3 kts 147°
2026-04-26 08:55 52.46351 -1.75876 321 ft 55 kts 146°
2026-04-26 08:55 52.45803 -1.75264 326 ft 133 kts 146°
2026-04-26 08:56 52.44890 -1.74248 677 ft 169 kts 143°
2026-04-26 08:56 52.43930 -1.73164 1648 ft 175 kts 146°
2026-04-26 08:56 52.42831 -1.71949 2057 ft 197 kts 148°
2026-04-26 08:56 52.41709 -1.70721 2931 ft 196 kts 147°
2026-04-26 08:57 52.40715 -1.69173 3683 ft 202 kts 125°
2026-04-26 08:57 52.40350 -1.66928 4377 ft 214 kts 90°
2026-04-26 08:57 52.40605 -1.64497 5144 ft 220 kts 76°
2026-04-26 08:57 52.41304 -1.62230 5750 ft 228 kts 52°
2026-04-26 08:58 52.42599 -1.60721 5981 ft 233 kts 22°
2026-04-26 08:58 52.44163 -1.59949 5998 ft 234 kts 14°
2026-04-26 08:58 52.45768 -1.59541 5995 ft 234 kts
2026-04-26 08:58 52.47464 -1.59637 6116 ft 257 kts 356°
2026-04-26 08:59 52.49322 -1.59853 6335 ft 275 kts 355°
2026-04-26 08:59 52.51225 -1.60236 6345 ft 276 kts 345°
2026-04-26 08:59 52.53028 -1.61300 6347 ft 275 kts 336°
2026-04-26 08:59 52.54784 -1.62573 6498 ft 277 kts 335°
2026-04-26 09:00 52.56548 -1.63881 7170 ft 278 kts 335°
2026-04-26 09:00 52.58317 -1.65172 8035 ft 278 kts 335°
2026-04-26 09:00 52.60091 -1.66461 8864 ft 280 kts 335°
2026-04-26 09:00 52.61864 -1.67750 9664 ft 283 kts 335°
2026-04-26 09:01 52.63683 -1.69068 10406 ft 287 kts 334°
2026-04-26 09:01 52.65553 -1.70420 10841 ft 303 kts 334°
2026-04-26 09:01 52.67547 -1.71869 11156 ft 322 kts 334°
2026-04-26 09:01 52.69665 -1.73373 11453 ft 340 kts 337°
2026-04-26 09:02 52.72024 -1.74298 11781 ft 357 kts 354°
2026-04-26 09:02 52.74537 -1.74270 12358 ft 365 kts
2026-04-26 09:02 52.77084 -1.73844 12988 ft 369 kts
2026-04-26 09:02 52.79647 -1.73219 13639 ft 373 kts
2026-04-26 09:03 52.82226 -1.72520 14229 ft 378 kts
2026-04-26 09:03 52.84840 -1.71814 14770 ft 382 kts
2026-04-26 09:03 52.87475 -1.71135 15330 ft 385 kts
2026-04-26 09:03 52.90132 -1.70485 15906 ft 388 kts
2026-04-26 09:04 52.92822 -1.69853 16467 ft 392 kts
2026-04-26 09:04 52.95498 -1.69241 17025 ft 395 kts
2026-04-26 09:04 52.98269 -1.68614 17594 ft 398 kts
2026-04-26 09:04 53.00995 -1.67998 18140 ft 402 kts
2026-04-26 09:05 53.03787 -1.67620 18658 ft 404 kts 358°
2026-04-26 09:05 53.06586 -1.68117 19156 ft 403 kts 345°
2026-04-26 09:05 53.09296 -1.69309 19681 ft 403 kts 340°
2026-04-26 09:05 53.11958 -1.70781 20202 ft 404 kts 338°
2026-04-26 09:06 53.14595 -1.72412 20705 ft 405 kts 336°
2026-04-26 09:06 53.17233 -1.74120 21201 ft 407 kts 336°
2026-04-26 09:06 53.19876 -1.75850 21686 ft 409 kts 336°
2026-04-26 09:06 53.22539 -1.77573 22199 ft 411 kts 336°
2026-04-26 09:07 53.25220 -1.79282 22707 ft 413 kts 336°
2026-04-26 09:07 53.27907 -1.80975 23225 ft 414 kts 336°
2026-04-26 09:07 53.30616 -1.82674 23685 ft 416 kts 336°
2026-04-26 09:07 53.33336 -1.84375 24100 ft 418 kts 336°
2026-04-26 09:08 53.36066 -1.86083 24459 ft 421 kts 336°
2026-04-26 09:08 53.38824 -1.87811 24812 ft 423 kts 336°
2026-04-26 09:08 53.41590 -1.89546 25201 ft 425 kts 336°
2026-04-26 09:08 53.44332 -1.91269 25576 ft 427 kts 336°
2026-04-26 09:09 53.47129 -1.93030 25982 ft 429 kts 336°
2026-04-26 09:09 53.49927 -1.94795 26410 ft 431 kts 336°
2026-04-26 09:09 53.52743 -1.96573 26855 ft 433 kts 336°
2026-04-26 09:09 53.55591 -1.98369 27299 ft 436 kts 335°
2026-04-26 09:10 53.58437 -2.00170 27767 ft 439 kts 335°
2026-04-26 09:10 53.61312 -2.01997 28199 ft 441 kts 335°
2026-04-26 09:10 53.64200 -2.03835 28326 ft 450 kts 335°
2026-04-26 09:10 53.67186 -2.05744 28335 ft 466 kts 335°
2026-04-26 09:11 53.70204 -2.07672 28326 ft 469 kts 336°
2026-04-26 09:11 53.76319 -2.11576 28326 ft 470 kts 335°
2026-04-26 09:12 53.82393 -2.15680 28325 ft 470 kts 334°
2026-04-26 09:12 53.88436 -2.19872 28329 ft 469 kts 334°
2026-04-26 09:13 53.94495 -2.24062 28327 ft 469 kts 334°
2026-04-26 09:13 54.00551 -2.28229 28328 ft 470 kts 334°
2026-04-26 09:14 54.06603 -2.32395 28313 ft 469 kts 334°
2026-04-26 09:14 54.12662 -2.36590 28317 ft 469 kts 334°
2026-04-26 09:15 54.18674 -2.40763 28322 ft 469 kts 334°
2026-04-26 09:15 54.24707 -2.44961 28086 ft 464 kts 334°
2026-04-26 09:15 54.27697 -2.47048 27816 ft 462 kts 334°
2026-04-26 09:16 54.30666 -2.49125 27561 ft 461 kts 334°
2026-04-26 09:16 54.33629 -2.51200 27294 ft 459 kts 334°
2026-04-26 09:16 54.36588 -2.53276 27046 ft 458 kts 334°
2026-04-26 09:16 54.39535 -2.55346 26784 ft 457 kts 334°
2026-04-26 09:17 54.42472 -2.57411 26529 ft 455 kts 334°
2026-04-26 09:17 54.44413 -2.58777 26366 ft 454 kts 334°
2026-04-26 09:17 54.48326 -2.61538 26312 ft 454 kts 334°
2026-04-26 09:17 54.51242 -2.63599 26306 ft 453 kts 334°
2026-04-26 09:18 54.54156 -2.65661 26305 ft 452 kts 334°
2026-04-26 09:18 54.57065 -2.67725 26304 ft 452 kts 334°
2026-04-26 09:18 54.59978 -2.69793 26299 ft 453 kts 334°
2026-04-26 09:18 54.62892 -2.71866 26305 ft 454 kts 334°
2026-04-26 09:19 54.65814 -2.73947 26305 ft 454 kts 334°
2026-04-26 09:19 54.68740 -2.76034 26305 ft 454 kts 334°
2026-04-26 09:19 54.71662 -2.78122 26304 ft 454 kts 334°
2026-04-26 09:19 54.74546 -2.80185 26308 ft 454 kts 334°
2026-04-26 09:20 54.77460 -2.82273 26134 ft 453 kts 334°
2026-04-26 09:20 54.80377 -2.84366 25885 ft 452 kts 334°
2026-04-26 09:20 54.83282 -2.86454 25635 ft 452 kts 334°
2026-04-26 09:20 54.86178 -2.88539 25400 ft 450 kts 334°
2026-04-26 09:21 54.89067 -2.90622 25163 ft 449 kts 334°
2026-04-26 09:21 54.91956 -2.92708 24916 ft 448 kts 334°
2026-04-26 09:21 54.94826 -2.94785 24611 ft 447 kts 334°
2026-04-26 09:21 54.97688 -2.96859 24086 ft 445 kts 334°
2026-04-26 09:22 55.00541 -2.98929 23406 ft 442 kts 334°
2026-04-26 09:22 55.03361 -3.00978 22787 ft 438 kts 334°
2026-04-26 09:22 55.06174 -3.03024 22158 ft 435 kts 334°
2026-04-26 09:22 55.08948 -3.05046 21561 ft 431 kts 334°
2026-04-26 09:23 55.11709 -3.07061 20965 ft 428 kts 334°
2026-04-26 09:23 55.14446 -3.09062 20362 ft 424 kts 334°
2026-04-26 09:23 55.17160 -3.11044 19735 ft 421 kts 334°
2026-04-26 09:23 55.19853 -3.13020 19100 ft 418 kts 334°
2026-04-26 09:24 55.22504 -3.14967 18755 ft 406 kts 334°
2026-04-26 09:24 55.25066 -3.16847 18467 ft 392 kts 334°
2026-04-26 09:24 55.27536 -3.18664 18158 ft 380 kts 334°
2026-04-26 09:24 55.29986 -3.20051 17849 ft 373 kts 347°
2026-04-26 09:25 55.32567 -3.20131 17559 ft 367 kts
2026-04-26 09:25 55.35073 -3.19749 17315 ft 356 kts
2026-04-26 09:25 55.37495 -3.19231 17088 ft 346 kts
2026-04-26 09:25 55.39794 -3.18227 16787 ft 336 kts 13°
2026-04-26 09:26 55.41994 -3.17035 16022 ft 328 kts 14°
2026-04-26 09:26 55.44167 -3.15840 15082 ft 325 kts 14°
2026-04-26 09:26 55.46318 -3.14674 14204 ft 321 kts 14°
2026-04-26 09:26 55.48448 -3.13536 13263 ft 318 kts 14°
2026-04-26 09:27 55.50547 -3.12418 12345 ft 313 kts 14°
2026-04-26 09:27 55.51919 -3.11687 11763 ft 310 kts 14°
2026-04-26 09:27 55.53968 -3.10592 10879 ft 306 kts 14°
2026-04-26 09:27 55.55991 -3.09505 10043 ft 302 kts 14°
2026-04-26 09:28 55.57981 -3.08439 9173 ft 297 kts 14°
2026-04-26 09:28 55.59946 -3.07402 8320 ft 291 kts 14°
2026-04-26 09:28 55.61878 -3.06395 7655 ft 288 kts 14°
2026-04-26 09:28 55.63801 -3.05409 7354 ft 288 kts 14°
2026-04-26 09:29 55.65725 -3.04431 7291 ft 286 kts 14°
2026-04-26 09:29 55.67636 -3.03461 7291 ft 285 kts 14°
2026-04-26 09:29 55.69541 -3.02493 7293 ft 285 kts 14°
2026-04-26 09:29 55.71445 -3.01524 7299 ft 284 kts 14°
2026-04-26 09:30 55.73291 -3.00582 7265 ft 269 kts 14°
2026-04-26 09:30 55.75066 -2.99671 7063 ft 262 kts 14°
2026-04-26 09:30 55.76816 -2.98774 6997 ft 262 kts 14°
2026-04-26 09:30 55.78536 -2.97893 6612 ft 252 kts 14°
2026-04-26 09:31 55.80228 -2.97025 5818 ft 254 kts 14°
2026-04-26 09:31 55.81903 -2.96167 5109 ft 253 kts 14°
2026-04-26 09:31 55.83582 -2.95305 4449 ft 250 kts 14°
2026-04-26 09:31 55.85252 -2.94449 4076 ft 250 kts 14°
2026-04-26 09:32 55.86923 -2.93594 3995 ft 251 kts 14°
2026-04-26 09:32 55.88595 -2.92739 3993 ft 250 kts 14°
2026-04-26 09:32 55.90271 -2.91882 3994 ft 249 kts 14°
2026-04-26 09:32 55.91938 -2.91029 3997 ft 249 kts 14°
2026-04-26 09:33 55.93605 -2.90177 3996 ft 249 kts 14°
2026-04-26 09:33 55.95272 -2.89325 3994 ft 249 kts 14°
2026-04-26 09:33 55.96946 -2.88513 3994 ft 249 kts 10°
2026-04-26 09:33 55.98646 -2.88579 3928 ft 244 kts 344°
2026-04-26 09:34 56.00189 -2.89666 3395 ft 236 kts 332°
2026-04-26 09:34 56.01649 -2.91035 3044 ft 239 kts 329°
2026-04-26 09:34 56.03099 -2.92442 2994 ft 240 kts 329°
2026-04-26 09:34 56.04569 -2.93870 2992 ft 240 kts 329°
2026-04-26 09:35 56.06005 -2.95382 2989 ft 243 kts 321°
2026-04-26 09:35 56.07031 -2.97810 2998 ft 250 kts 288°
2026-04-26 09:35 56.07136 -3.00885 2999 ft 250 kts 258°
2026-04-26 09:35 56.06488 -3.03754 2997 ft 250 kts 239°
2026-04-26 09:36 56.05533 -3.06362 2995 ft 251 kts 236°
2026-04-26 09:36 56.04570 -3.08966 2994 ft 251 kts 237°
2026-04-26 09:36 56.03659 -3.11634 2993 ft 251 kts 238°
2026-04-26 09:36 56.02761 -3.14303 2954 ft 250 kts 238°
2026-04-26 09:37 56.01873 -3.16952 2661 ft 243 kts 238°
2026-04-26 09:37 56.01041 -3.19430 2324 ft 223 kts 238°
2026-04-26 09:37 56.00270 -3.21706 2030 ft 205 kts 238°
2026-04-26 09:37 55.99561 -3.23796 1767 ft 188 kts 238°
2026-04-26 09:38 55.98899 -3.25746 1498 ft 180 kts 238°
2026-04-26 09:38 55.98267 -3.27614 1248 ft 172 kts 238°
2026-04-26 09:38 55.97668 -3.29383 1022 ft 166 kts 238°
2026-04-26 09:38 55.97074 -3.31135 780 ft 160 kts 239°
2026-04-26 09:39 55.96509 -3.32802 583 ft 158 kts 239°
2026-04-26 09:39 55.95939 -3.34480 366 ft 158 kts 239°
2026-04-26 09:39 55.95384 -3.36117 122 ft 149 kts 239°
2026-04-26 09:39 55.94917 -3.37488 111 ft 94 kts 239°
2026-04-26 09:40 55.94736 -3.38007 117 ft 20 kts 221°
2026-04-26 09:40 55.94644 -3.38002 115 ft 8 kts 150°
2026-04-26 09:40 55.94642 -3.38000 115 ft 0 kts 150°
2026-04-26 09:41 55.94637 -3.37995 114 ft 4 kts 150°
2026-04-26 09:42 55.94596 -3.37939 114 ft 1 kts 117°
2026-04-26 09:42 55.94609 -3.37775 114 ft 24 kts 53°
2026-04-26 09:42 55.94679 -3.37616 114 ft 16 kts 54°
2026-04-26 09:42 55.94750 -3.37415 113 ft 18 kts 59°
2026-04-26 09:43 55.94822 -3.37203 110 ft 14 kts 59°
2026-04-26 09:43 55.94871 -3.37059 107 ft 16 kts 59°
2026-04-26 09:43 55.94925 -3.36893 109 ft 14 kts 60°
2026-04-26 09:43 55.94979 -3.36736 109 ft 16 kts 58°
2026-04-26 09:44 55.95045 -3.36544 111 ft 20 kts 58°
2026-04-26 09:44 55.95113 -3.36348 109 ft 19 kts 58°
2026-04-26 09:44 55.95116 -3.36110 110 ft 18 kts 109°
2026-04-26 09:44 55.95110 -3.36080 109 ft 3 kts 109°
2026-04-26 09:45 55.95100 -3.36025 110 ft 7 kts 109°
2026-04-26 09:45 55.95078 -3.35944 110 ft 0 kts 130°
2026-04-26 09:45 55.95070 -3.35934 110 ft 3 kts 140°
2026-04-26 09:45 55.95052 -3.35928 111 ft 2 kts 196°
2026-04-26 09:46 55.95038 -3.35951 110 ft 2 kts 232°
2026-04-26 09:46 55.95024 -3.35994 112 ft 5 kts 239°
2026-04-26 09:46 55.95019 -3.36012 109 ft 0 kts 244°